"Sample Date","Sample Time","Sample Value","Units","Flow Rate","Sample Interval","Number Channels","Micron Size 0","Counts/Channel 0","Micron Size 1","Counts/Channel 1","Micron Size 2","Counts/Channel 2","Micron Size 3","Counts/Channel 3","Micron Size 4","Counts/Channel 4","Micron Size 5","Counts/Channel 5","Micron Size 6","Counts/Channel 6","Micron Size 7","Counts/Channel 7","Micron Size 8","Counts/Channel 8","Micron Size 9","Counts/Channel 9","Micron Size 10","Counts/Channel 10","Micron Size 11","Counts/Channel 11","Micron Size 12","Counts/Channel 12","Micron Size 13","Counts/Channel 13","Micron Size 14","Counts/Channel 14","Micron Size 15","Counts/Channel 15","Micron Size 16","Counts/Channel 16","Micron Size 17","Counts/Channel 17","Micron Size 18","Counts/Channel 18","Micron Size 19","Counts/Channel 19","Micron Size 20","Counts/Channel 20","Micron Size 21","Counts/Channel 21","Micron Size 22","Counts/Channel 22","Micron Size 23","Counts/Channel 23","Micron Size 24","Counts/Channel 24","Micron Size 25","Counts/Channel 25","Micron Size 26","Counts/Channel 26","Micron Size 27","Counts/Channel 27","Micron Size 28","Counts/Channel 28","Micron Size 29","Counts/Channel 29","Micron Size 30","Counts/Channel 30","Micron Size 31","Counts/Channel 31"
"04/07/08","14:00:04",14015.000,"cc",28234.732,6.00,6,0.100,6905.000,0.200,2232.000,0.300,1803.000,0.500,2188.000,1.000,887.000,5.000,0
"04/07/08","14:00:10",13894.000,"cc",28345.361,6.00,6,0.100,6866.000,0.200,2241.000,0.300,1840.000,0.500,2090.000,1.000,857.000,5.000,0
"04/07/08","14:00:16",14717.000,"cc",28376.029,6.00,6,0.100,7152.000,0.200,2376.000,0.300,1970.000,0.500,2259.000,1.000,960.000,5.000,0
"04/07/08","14:00:22",14445.000,"cc",28327.857,6.00,6,0.100,7149.000,0.200,2226.000,0.300,1896.000,0.500,2258.000,1.000,916.000,5.000,0
"04/07/08","14:00:28",13887.000,"cc",28276.742,6.00,6,0.100,6897.000,0.200,2183.000,0.300,1828.000,0.500,2106.000,1.000,873.000,5.000,0
"04/07/08","14:00:34",12940.000,"cc",28352.342,6.00,6,0.100,6472.000,0.200,1943.000,0.300,1695.000,0.500,2046.000,1.000,784.000,5.000,0
"04/07/08","14:00:40",13409.000,"cc",28295.926,6.00,6,0.100,6651.000,0.200,2125.000,0.300,1802.000,0.500,2005.000,1.000,826.000,5.000,0
"04/07/08","14:00:46",13658.000,"cc",28345.746,6.00,6,0.100,6915.000,0.200,2111.000,0.300,1770.000,0.500,2064.000,1.000,798.000,5.000,0
"04/07/08","14:00:52",14007.000,"cc",28291.215,6.00,6,0.100,6899.000,0.200,2218.000,0.300,1842.000,0.500,2164.000,1.000,884.000,5.000,0
"04/07/08","14:00:58",13894.000,"cc",28321.322,6.00,6,0.100,6818.000,0.200,2258.000,0.300,1790.000,0.500,2156.000,1.000,872.000,5.000,0
"04/07/08","14:01:04",13669.000,"cc",28319.287,6.00,6,0.100,6873.000,0.200,2137.000,0.300,1713.000,0.500,2059.000,1.000,887.000,5.000,0
"04/07/08","14:01:10",14050.000,"cc",28216.256,6.00,6,0.100,6956.000,0.200,2206.000,0.300,1891.000,0.500,2146.000,1.000,851.000,5.000,0
"04/07/08","14:01:16",14045.000,"cc",28239.398,6.00,6,0.100,6961.000,0.200,2181.000,0.300,1875.000,0.500,2106.000,1.000,922.000,5.000,0
"04/07/08","14:01:22",14298.000,"cc",28390.410,6.00,6,0.100,7043.000,0.200,2234.000,0.300,1935.000,0.500,2160.000,1.000,926.000,5.000,0
"04/07/08","14:01:28",14632.000,"cc",28313.106,6.00,6,0.100,7051.000,0.200,2385.000,0.300,2023.000,0.500,2271.000,1.000,901.000,5.000,1.000
"04/07/08","14:01:34",14428.000,"cc",28250.770,6.00,6,0.100,6963.000,0.200,2352.000,0.300,1967.000,0.500,2242.000,1.000,904.000,5.000,0
"04/07/08","14:01:40",15085.000,"cc",28375.680,6.00,6,0.100,7269.000,0.200,2333.000,0.300,2008.000,0.500,2480.000,1.000,995.000,5.000,0
"04/07/08","14:01:46",14407.000,"cc",28270.115,6.00,6,0.100,6989.000,0.200,2368.000,0.300,1896.000,0.500,2246.000,1.000,908.000,5.000,0
"04/07/08","14:01:52",14169.000,"cc",28390.262,6.00,6,0.100,7141.000,0.200,2267.000,0.300,1759.000,0.500,2151.000,1.000,851.000,5.000,0
"04/07/08","14:01:58",14566.000,"cc",28310.887,6.00,6,0.100,7128.000,0.200,2371.000,0.300,1944.000,0.500,2233.000,1.000,889.000,5.000,1.000
"04/07/08","14:02:04",13456.000,"cc",28302.500,6.00,6,0.100,6709.000,0.200,2073.000,0.300,1809.000,0.500,2016.000,1.000,849.000,5.000,0
"04/07/08","14:02:10",14141.000,"cc",28356.609,6.00,6,0.100,7063.000,0.200,2150.000,0.300,1889.000,0.500,2217.000,1.000,822.000,5.000,0
"04/07/08","14:02:16",14153.000,"cc",28275.215,6.00,6,0.100,7027.000,0.200,2183.000,0.300,1841.000,0.500,2256.000,1.000,846.000,5.000,0
"04/07/08","14:02:22",13936.000,"cc",28363.324,6.00,6,0.100,6843.000,0.200,2266.000,0.300,1875.000,0.500,2137.000,1.000,815.000,5.000,0
"04/07/08","14:02:28",14399.000,"cc",28367.578,6.00,6,0.100,7154.000,0.200,2259.000,0.300,1974.000,0.500,2161.000,1.000,851.000,5.000,0
"04/07/08","14:02:34",14152.000,"cc",28251.969,6.00,6,0.100,7056.000,0.200,2199.000,0.300,1800.000,0.500,2227.000,1.000,870.000,5.000,0
"04/07/08","14:02:40",14329.000,"cc",28302.104,6.00,6,0.100,7025.000,0.200,2210.000,0.300,1909.000,0.500,2327.000,1.000,858.000,5.000,0
"04/07/08","14:02:46",14331.000,"cc",28289.940,6.00,6,0.100,7011.000,0.200,2258.000,0.300,1931.000,0.500,2248.000,1.000,883.000,5.000,0
"04/07/08","14:02:52",14558.000,"cc",28265.602,6.00,6,0.100,7098.000,0.200,2271.000,0.300,1955.000,0.500,2331.000,1.000,903.000,5.000,0
"04/07/08","14:02:58",14313.000,"cc",28432.231,6.00,6,0.100,7175.000,0.200,2240.000,0.300,1764.000,0.500,2218.000,1.000,916.000,5.000,0
"04/07/08","14:03:04",13644.000,"cc",28402.820,6.00,6,0.100,6688.000,0.200,2149.000,0.300,1751.000,0.500,2195.000,1.000,861.000,5.000,0
"04/07/08","14:03:10",13522.000,"cc",28347.207,6.00,6,0.100,6882.000,0.200,2040.000,0.300,1756.000,0.500,1993.000,1.000,851.000,5.000,0
"04/07/08","14:03:16",13343.000,"cc",28269.793,6.00,6,0.100,6892.000,0.200,2028.000,0.300,1678.000,0.500,1984.000,1.000,761.000,5.000,0
"04/07/08","14:03:22",13741.000,"cc",28239.959,6.00,6,0.100,6897.000,0.200,2095.000,0.300,1768.000,0.500,2129.000,1.000,852.000,5.000,0
"04/07/08","14:03:28",14063.000,"cc",28298.787,6.00,6,0.100,6922.000,0.200,2152.000,0.300,1826.000,0.500,2256.000,1.000,907.000,5.000,0
"04/07/08","14:03:34",14014.000,"cc",28291.260,6.00,6,0.100,6976.000,0.200,2172.000,0.300,1864.000,0.500,2180.000,1.000,822.000,5.000,0
"04/07/08","14:03:40",14591.000,"cc",28266.879,6.00,6,0.100,7131.000,0.200,2292.000,0.300,1977.000,0.500,2251.000,1.000,940.000,5.000,0
"04/07/08","14:03:46",14703.000,"cc",28272.895,6.00,6,0.100,7219.000,0.200,2275.000,0.300,1960.000,0.500,2315.000,1.000,934.000,5.000,0
"04/07/08","14:03:52",14007.000,"cc",28504.531,6.00,6,0.100,7003.000,0.200,2166.000,0.300,1869.000,0.500,2141.000,1.000,828.000,5.000,0
"04/07/08","14:03:58",14083.000,"cc",28323.648,6.00,6,0.100,7134.000,0.200,2127.000,0.300,1860.000,0.500,2104.000,1.000,857.000,5.000,1.000
"04/07/08","14:04:04",13709.000,"cc",28379.994,6.00,6,0.100,6840.000,0.200,2167.000,0.300,1737.000,0.500,2147.000,1.000,818.000,5.000,0
"04/07/08","14:04:10",13940.000,"cc",28330.908,6.00,6,0.100,7002.000,0.200,2162.000,0.300,1786.000,0.500,2122.000,1.000,867.000,5.000,1.000
"04/07/08","14:04:16",14310.000,"cc",28268.549,6.00,6,0.100,7145.000,0.200,2195.000,0.300,1848.000,0.500,2255.000,1.000,867.000,5.000,0
"04/07/08","14:04:22",14873.000,"cc",28218.904,6.00,6,0.100,7183.000,0.200,2345.000,0.300,2048.000,0.500,2346.000,1.000,951.000,5.000,0
"04/07/08","14:04:28",14194.000,"cc",28275.479,6.00,6,0.100,7025.000,0.200,2259.000,0.300,1868.000,0.500,2184.000,1.000,858.000,5.000,0
"04/07/08","14:04:34",14255.000,"cc",28290.135,6.00,6,0.100,7157.000,0.200,2265.000,0.300,1827.000,0.500,2100.000,1.000,906.000,5.000,0
"04/07/08","14:04:40",14700.000,"cc",28367.154,6.00,6,0.100,7332.000,0.200,2333.000,0.300,1871.000,0.500,2317.000,1.000,847.000,5.000,0
"04/07/08","14:04:46",14639.000,"cc",28203.604,6.00,6,0.100,7290.000,0.200,2370.000,0.300,1894.000,0.500,2237.000,1.000,848.000,5.000,0
"04/07/08","14:04:52",14260.000,"cc",28386.219,6.00,6,0.100,7175.000,0.200,2230.000,0.300,1838.000,0.500,2175.000,1.000,842.000,5.000,0
"04/07/08","14:04:58",14255.000,"cc",28408.295,6.00,6,0.100,7089.000,0.200,2216.000,0.300,1882.000,0.500,2206.000,1.000,862.000,5.000,0
"04/07/08","14:05:04",13913.000,"cc",28302.273,6.00,6,0.100,6965.000,0.200,2069.000,0.300,1767.000,0.500,2223.000,1.000,889.000,5.000,0
"04/07/08","14:05:10",13974.000,"cc",28329.672,6.00,6,0.100,6885.000,0.200,2151.000,0.300,1888.000,0.500,2155.000,1.000,895.000,5.000,0
"04/07/08","14:05:16",14171.000,"cc",28213.770,6.00,6,0.100,7072.000,0.200,2208.000,0.300,1803.000,0.500,2205.000,1.000,883.000,5.000,0
"04/07/08","14:05:22",14227.000,"cc",28265.273,6.00,6,0.100,7153.000,0.200,2216.000,0.300,1850.000,0.500,2170.000,1.000,838.000,5.000,0
"04/07/08","14:05:28",14037.000,"cc",28205.545,6.00,6,0.100,7148.000,0.200,2177.000,0.300,1732.000,0.500,2127.000,1.000,853.000,5.000,0
"04/07/08","14:05:34",14530.000,"cc",28377.137,6.00,6,0.100,7192.000,0.200,2297.000,0.300,1868.000,0.500,2240.000,1.000,933.000,5.000,0
"04/07/08","14:05:40",14360.000,"cc",28331.309,6.00,6,0.100,7012.000,0.200,2251.000,0.300,1987.000,0.500,2234.000,1.000,876.000,5.000,0
"04/07/08","14:05:46",14284.000,"cc",28347.674,6.00,6,0.100,7056.000,0.200,2274.000,0.300,1913.000,0.500,2173.000,1.000,868.000,5.000,0
"04/07/08","14:05:52",14839.000,"cc",28294.506,6.00,6,0.100,7339.000,0.200,2341.000,0.300,1945.000,0.500,2326.000,1.000,888.000,5.000,0
"04/07/08","14:05:58",15203.000,"cc",28340.014,6.00,6,0.100,7440.000,0.200,2513.000,0.300,1948.000,0.500,2322.000,1.000,980.000,5.000,0
"04/07/08","14:06:04",14142.000,"cc",28428.203,6.00,6,0.100,7150.000,0.200,2169.000,0.300,1822.000,0.500,2189.000,1.000,812.000,5.000,0
"04/07/08","14:06:10",13710.000,"cc",28318.121,6.00,6,0.100,6951.000,0.200,2091.000,0.300,1800.000,0.500,2039.000,1.000,829.000,5.000,0
"04/07/08","14:06:16",14037.000,"cc",28307.807,6.00,6,0.100,6995.000,0.200,2124.000,0.300,1862.000,0.500,2147.000,1.000,909.000,5.000,0
"04/07/08","14:06:22",13963.000,"cc",28345.555,6.00,6,0.100,7127.000,0.200,2083.000,0.300,1805.000,0.500,2134.000,1.000,814.000,5.000,0
"04/07/08","14:06:28",14731.000,"cc",28340.047,6.00,6,0.100,7246.000,0.200,2377.000,0.300,1942.000,0.500,2266.000,1.000,900.000,5.000,0
"04/07/08","14:06:34",14774.000,"cc",28298.002,6.00,6,0.100,7280.000,0.200,2338.000,0.300,1893.000,0.500,2309.000,1.000,954.000,5.000,0
"04/07/08","14:06:40",14777.000,"cc",28351.793,6.00,6,0.100,7335.000,0.200,2314.000,0.300,1895.000,0.500,2313.000,1.000,920.000,5.000,0
"04/07/08","14:06:46",16282.000,"cc",28149.891,6.00,6,0.100,7818.000,0.200,2640.000,0.300,2173.000,0.500,2591.000,1.000,1060.000,5.000,0
"04/07/08","14:06:52",14647.000,"cc",28170.156,6.00,6,0.100,7276.000,0.200,2269.000,0.300,1924.000,0.500,2301.000,1.000,877.000,5.000,0
"04/07/08","14:06:58",14695.000,"cc",28417.930,6.00,6,0.100,7269.000,0.200,2318.000,0.300,1909.000,0.500,2286.000,1.000,913.000,5.000,0
"04/07/08","14:07:04",14017.000,"cc",28304.379,6.00,6,0.100,7044.000,0.200,2117.000,0.300,1916.000,0.500,2132.000,1.000,808.000,5.000,0
"04/07/08","14:07:10",13587.000,"cc",28321.240,6.00,6,0.100,6911.000,0.200,2092.000,0.300,1716.000,0.500,2047.000,1.000,821.000,5.000,0
"04/07/08","14:07:16",14333.000,"cc",28315.389,6.00,6,0.100,7218.000,0.200,2242.000,0.300,1833.000,0.500,2149.000,1.000,891.000,5.000,0
"04/07/08","14:07:22",14108.000,"cc",28327.188,6.00,6,0.100,7219.000,0.200,2177.000,0.300,1753.000,0.500,2112.000,1.000,847.000,5.000,0
"04/07/08","14:07:28",14783.000,"cc",28362.904,6.00,6,0.100,7350.000,0.200,2331.000,0.300,1903.000,0.500,2296.000,1.000,903.000,5.000,0
"04/07/08","14:07:34",15098.000,"cc",28215.727,6.00,6,0.100,7353.000,0.200,2390.000,0.300,2035.000,0.500,2372.000,1.000,948.000,5.000,0
"04/07/08","14:07:40",15077.000,"cc",28296.098,6.00,6,0.100,7546.000,0.200,2481.000,0.300,1943.000,0.500,2252.000,1.000,855.000,5.000,0
"04/07/08","14:07:46",14240.000,"cc",28364.818,6.00,6,0.100,7318.000,0.200,2221.000,0.300,1807.000,0.500,2105.000,1.000,789.000,5.000,0
"04/07/08","14:07:52",14409.000,"cc",28274.594,6.00,6,0.100,7227.000,0.200,2129.000,0.300,1872.000,0.500,2218.000,1.000,963.000,5.000,0
"04/07/08","14:07:58",14897.000,"cc",28283.785,6.00,6,0.100,7405.000,0.200,2301.000,0.300,2027.000,0.500,2274.000,1.000,890.000,5.000,0
"04/07/08","14:08:04",13894.000,"cc",28411.863,6.00,6,0.100,7059.000,0.200,2088.000,0.300,1734.000,0.500,2159.000,1.000,854.000,5.000,0
"04/07/08","14:08:10",14453.000,"cc",28347.184,6.00,6,0.100,7207.000,0.200,2256.000,0.300,1817.000,0.500,2258.000,1.000,915.000,5.000,0
"04/07/08","14:08:16",14176.000,"cc",28368.865,6.00,6,0.100,7228.000,0.200,2062.000,0.300,1826.000,0.500,2223.000,1.000,835.000,5.000,2.000
"04/07/08","14:08:22",14382.000,"cc",28192.549,6.00,6,0.100,7190.000,0.200,2180.000,0.300,1857.000,0.500,2263.000,1.000,892.000,5.000,0
"04/07/08","14:08:28",14786.000,"cc",28240.977,6.00,6,0.100,7333.000,0.200,2350.000,0.300,1966.000,0.500,2238.000,1.000,899.000,5.000,0
"04/07/08","14:08:34",14354.000,"cc",28316.846,6.00,6,0.100,7309.000,0.200,2201.000,0.300,1857.000,0.500,2094.000,1.000,893.000,5.000,0
"04/07/08","14:08:40",14241.000,"cc",28365.537,6.00,6,0.100,7096.000,0.200,2264.000,0.300,1843.000,0.500,2195.000,1.000,843.000,5.000,0
"04/07/08","14:08:46",14501.000,"cc",28326.356,6.00,6,0.100,7125.000,0.200,2323.000,0.300,1924.000,0.500,2228.000,1.000,901.000,5.000,0
"04/07/08","14:08:52",15022.000,"cc",28266.664,6.00,6,0.100,7310.000,0.200,2353.000,0.300,1999.000,0.500,2442.000,1.000,918.000,5.000,0
"04/07/08","14:08:58",14748.000,"cc",28280.984,6.00,6,0.100,7288.000,0.200,2315.000,0.300,1946.000,0.500,2322.000,1.000,876.000,5.000,1.000
"04/07/08","14:09:04",14271.000,"cc",28386.434,6.00,6,0.100,7170.000,0.200,2199.000,0.300,1778.000,0.500,2214.000,1.000,910.000,5.000,0
"04/07/08","14:09:10",15348.000,"cc",28292.250,6.00,6,0.100,7581.000,0.200,2350.000,0.300,2100.000,0.500,2384.000,1.000,933.000,5.000,0
"04/07/08","14:09:16",15610.000,"cc",28313.852,6.00,6,0.100,7615.000,0.200,2465.000,0.300,2158.000,0.500,2479.000,1.000,893.000,5.000,0
"04/07/08","14:09:22",15761.000,"cc",28310.410,6.00,6,0.100,7759.000,0.200,2438.000,0.300,2144.000,0.500,2458.000,1.000,962.000,5.000,0
"04/07/08","14:09:28",14758.000,"cc",28321.229,6.00,6,0.100,7460.000,0.200,2317.000,0.300,1881.000,0.500,2248.000,1.000,852.000,5.000,0
"04/07/08","14:09:34",14907.000,"cc",28242.137,6.00,6,0.100,7394.000,0.200,2348.000,0.300,1975.000,0.500,2302.000,1.000,888.000,5.000,0
"04/07/08","14:09:40",14597.000,"cc",28387.584,6.00,6,0.100,7318.000,0.200,2286.000,0.300,1934.000,0.500,2181.000,1.000,878.000,5.000,0
"04/07/08","14:09:46",15304.000,"cc",28310.131,6.00,6,0.100,7565.000,0.200,2453.000,0.300,1982.000,0.500,2414.000,1.000,890.000,5.000,0
"04/07/08","14:09:52",15553.000,"cc",28336.238,6.00,6,0.100,7817.000,0.200,2421.000,0.300,2088.000,0.500,2344.000,1.000,883.000,5.000,0
"04/07/08","14:09:58",15033.000,"cc",28326.570,6.00,6,0.100,7521.000,0.200,2351.000,0.300,2025.000,0.500,2237.000,1.000,899.000,5.000,0
"04/07/08","14:10:04",14673.000,"cc",28236.459,6.00,6,0.100,7307.000,0.200,2359.000,0.300,1951.000,0.500,2198.000,1.000,858.000,5.000,0
"04/07/08","14:10:10",15086.000,"cc",28355.740,6.00,6,0.100,7417.000,0.200,2404.000,0.300,1998.000,0.500,2334.000,1.000,933.000,5.000,0
"04/07/08","14:10:16",14778.000,"cc",28314.195,6.00,6,0.100,7438.000,0.200,2341.000,0.300,1952.000,0.500,2218.000,1.000,829.000,5.000,0
"04/07/08","14:10:22",15408.000,"cc",28350.414,6.00,6,0.100,7543.000,0.200,2470.000,0.300,2002.000,0.500,2427.000,1.000,966.000,5.000,0
"04/07/08","14:10:28",13995.000,"cc",28398.100,6.00,6,0.100,7019.000,0.200,2187.000,0.300,1852.000,0.500,2124.000,1.000,813.000,5.000,0
"04/07/08","14:10:34",13950.000,"cc",28333.344,6.00,6,0.100,7141.000,0.200,2030.000,0.300,1777.000,0.500,2117.000,1.000,885.000,5.000,0
"04/07/08","14:10:40",14200.000,"cc",28352.309,6.00,6,0.100,7052.000,0.200,2227.000,0.300,1858.000,0.500,2181.000,1.000,882.000,5.000,0
"04/07/08","14:10:46",13698.000,"cc",28371.900,6.00,6,0.100,6959.000,0.200,2061.000,0.300,1761.000,0.500,2070.000,1.000,847.000,5.000,0
"04/07/08","14:10:52",14035.000,"cc",28295.574,6.00,6,0.100,7006.000,0.200,2170.000,0.300,1774.000,0.500,2180.000,1.000,905.000,5.000,0
"04/07/08","14:10:58",14256.000,"cc",28216.844,6.00,6,0.100,7177.000,0.200,2247.000,0.300,1870.000,0.500,2120.000,1.000,842.000,5.000,0
"04/07/08","14:11:04",14449.000,"cc",28340.029,6.00,6,0.100,7214.000,0.200,2272.000,0.300,1878.000,0.500,2193.000,1.000,892.000,5.000,0
"04/07/08","14:11:10",15107.000,"cc",28278.897,6.00,6,0.100,7352.000,0.200,2473.000,0.300,2014.000,0.500,2348.000,1.000,920.000,5.000,0
"04/07/08","14:11:16",14788.000,"cc",28350.398,6.00,6,0.100,7425.000,0.200,2334.000,0.300,1864.000,0.500,2241.000,1.000,924.000,5.000,0
"04/07/08","14:11:22",15196.000,"cc",28157.006,6.00,6,0.100,7640.000,0.200,2363.000,0.300,1969.000,0.500,2296.000,1.000,928.000,5.000,0
"04/07/08","14:11:28",15512.000,"cc",28303.773,6.00,6,0.100,7652.000,0.200,2458.000,0.300,2038.000,0.500,2380.000,1.000,984.000,5.000,0
"04/07/08","14:11:34",15051.000,"cc",28362.342,6.00,6,0.100,7468.000,0.200,2379.000,0.300,1979.000,0.500,2326.000,1.000,899.000,5.000,0
"04/07/08","14:11:40",15415.000,"cc",28340.410,6.00,6,0.100,7514.000,0.200,2474.000,0.300,2092.000,0.500,2394.000,1.000,941.000,5.000,0
"04/07/08","14:11:46",15121.000,"cc",28182.559,6.00,6,0.100,7405.000,0.200,2402.000,0.300,2019.000,0.500,2404.000,1.000,891.000,5.000,0
"04/07/08","14:11:52",15509.000,"cc",28313.775,6.00,6,0.100,7497.000,0.200,2552.000,0.300,2116.000,0.500,2449.000,1.000,895.000,5.000,0
"04/07/08","14:11:58",15504.000,"cc",28403.641,6.00,6,0.100,7675.000,0.200,2445.000,0.300,2099.000,0.500,2372.000,1.000,913.000,5.000,0
"04/07/08","14:12:04",14857.000,"cc",28429.969,6.00,6,0.100,7413.000,0.200,2256.000,0.300,1995.000,0.500,2282.000,1.000,910.000,5.000,1.000
"04/07/08","14:12:10",14780.000,"cc",28374.391,6.00,6,0.100,7233.000,0.200,2321.000,0.300,1980.000,0.500,2313.000,1.000,933.000,5.000,0
"04/07/08","14:12:16",14581.000,"cc",28341.102,6.00,6,0.100,7313.000,0.200,2234.000,0.300,1838.000,0.500,2322.000,1.000,874.000,5.000,0
"04/07/08","14:12:22",15092.000,"cc",28281.775,6.00,6,0.100,7402.000,0.200,2358.000,0.300,1958.000,0.500,2425.000,1.000,949.000,5.000,0
"04/07/08","14:12:28",15364.000,"cc",28290.336,6.00,6,0.100,7524.000,0.200,2395.000,0.300,2074.000,0.500,2408.000,1.000,963.000,5.000,0
"04/07/08","14:12:34",14868.000,"cc",28244.311,6.00,6,0.100,7368.000,0.200,2317.000,0.300,1929.000,0.500,2360.000,1.000,894.000,5.000,0
"04/07/08","14:12:40",14644.000,"cc",28211.801,6.00,6,0.100,7227.000,0.200,2318.000,0.300,1939.000,0.500,2297.000,1.000,863.000,5.000,0
"04/07/08","14:12:46",14522.000,"cc",28330.643,6.00,6,0.100,7309.000,0.200,2257.000,0.300,1890.000,0.500,2216.000,1.000,850.000,5.000,0
"04/07/08","14:12:52",14700.000,"cc",28386.273,6.00,6,0.100,7219.000,0.200,2338.000,0.300,1988.000,0.500,2288.000,1.000,867.000,5.000,0
"04/07/08","14:12:58",14717.000,"cc",28444.234,6.00,6,0.100,7261.000,0.200,2315.000,0.300,1917.000,0.500,2325.000,1.000,898.000,5.000,1.000
"04/07/08","14:13:04",14604.000,"cc",28196.059,6.00,6,0.100,7381.000,0.200,2251.000,0.300,1885.000,0.500,2205.000,1.000,882.000,5.000,0
"04/07/08","14:13:10",14417.000,"cc",28422.059,6.00,6,0.100,7217.000,0.200,2242.000,0.300,1872.000,0.500,2271.000,1.000,815.000,5.000,0
"04/07/08","14:13:16",14500.000,"cc",28336.256,6.00,6,0.100,7182.000,0.200,2241.000,0.300,1883.000,0.500,2258.000,1.000,936.000,5.000,0
"04/07/08","14:13:22",14335.000,"cc",28293.334,6.00,6,0.100,7095.000,0.200,2304.000,0.300,1867.000,0.500,2216.000,1.000,853.000,5.000,0
"04/07/08","14:13:28",14595.000,"cc",28330.787,6.00,6,0.100,7226.000,0.200,2315.000,0.300,1906.000,0.500,2233.000,1.000,915.000,5.000,0
"04/07/08","14:13:34",15327.000,"cc",28117.537,6.00,6,0.100,7530.000,0.200,2489.000,0.300,2068.000,0.500,2415.000,1.000,825.000,5.000,0
"04/07/08","14:13:40",14902.000,"cc",28383.291,6.00,6,0.100,7315.000,0.200,2351.000,0.300,2026.000,0.500,2307.000,1.000,903.000,5.000,0
"04/07/08","14:13:46",14820.000,"cc",28206.356,6.00,6,0.100,7395.000,0.200,2304.000,0.300,1941.000,0.500,2263.000,1.000,917.000,5.000,0
"04/07/08","14:13:52",15152.000,"cc",28380.065,6.00,6,0.100,7463.000,0.200,2336.000,0.300,2033.000,0.500,2375.000,1.000,945.000,5.000,0
"04/07/08","14:13:58",14297.000,"cc",28346.072,6.00,6,0.100,7150.000,0.200,2270.000,0.300,1871.000,0.500,2173.000,1.000,833.000,5.000,0
"04/07/08","14:14:04",14262.000,"cc",28332.115,6.00,6,0.100,7170.000,0.200,2212.000,0.300,1866.000,0.500,2149.000,1.000,865.000,5.000,0
"04/07/08","14:14:10",14460.000,"cc",28302.705,6.00,6,0.100,7181.000,0.200,2229.000,0.300,1914.000,0.500,2228.000,1.000,908.000,5.000,0
"04/07/08","14:14:16",14340.000,"cc",28357.594,6.00,6,0.100,7139.000,0.200,2305.000,0.300,1865.000,0.500,2211.000,1.000,820.000,5.000,0
"04/07/08","14:14:22",14969.000,"cc",28237.650,6.00,6,0.100,7431.000,0.200,2354.000,0.300,1928.000,0.500,2303.000,1.000,953.000,5.000,0
"04/07/08","14:14:28",14859.000,"cc",28310.244,6.00,6,0.100,7473.000,0.200,2360.000,0.300,1972.000,0.500,2208.000,1.000,846.000,5.000,0
"04/07/08","14:14:34",14542.000,"cc",28390.492,6.00,6,0.100,7177.000,0.200,2284.000,0.300,1886.000,0.500,2269.000,1.000,926.000,5.000,0
"04/07/08","14:14:40",14666.000,"cc",28316.568,6.00,6,0.100,7378.000,0.200,2210.000,0.300,1941.000,0.500,2272.000,1.000,865.000,5.000,0
"04/07/08","14:14:46",14697.000,"cc",28370.231,6.00,6,0.100,7346.000,0.200,2199.000,0.300,1962.000,0.500,2247.000,1.000,943.000,5.000,0
"04/07/08","14:14:52",14761.000,"cc",28265.164,6.00,6,0.100,7372.000,0.200,2274.000,0.300,1955.000,0.500,2258.000,1.000,902.000,5.000,0
"04/07/08","14:14:58",15279.000,"cc",28322.818,6.00,6,0.100,7540.000,0.200,2445.000,0.300,2032.000,0.500,2373.000,1.000,889.000,5.000,0
"04/07/08","14:15:04",14741.000,"cc",28297.699,6.00,6,0.100,7303.000,0.200,2298.000,0.300,1932.000,0.500,2316.000,1.000,892.000,5.000,0
"04/07/08","14:15:10",14813.000,"cc",28257.631,6.00,6,0.100,7392.000,0.200,2335.000,0.300,1903.000,0.500,2282.000,1.000,901.000,5.000,0
"04/07/08","14:15:16",14861.000,"cc",28457.543,6.00,6,0.100,7361.000,0.200,2410.000,0.300,1961.000,0.500,2236.000,1.000,893.000,5.000,0
"04/07/08","14:15:22",14340.000,"cc",28367.729,6.00,6,0.100,7251.000,0.200,2183.000,0.300,1856.000,0.500,2183.000,1.000,867.000,5.000,0
"04/07/08","14:15:28",13199.000,"cc",28336.107,6.00,6,0.100,6726.000,0.200,1969.000,0.300,1722.000,0.500,1987.000,1.000,795.000,5.000,0
"04/07/08","14:15:34",14125.000,"cc",28264.277,6.00,6,0.100,7010.000,0.200,2202.000,0.300,1855.000,0.500,2136.000,1.000,922.000,5.000,0
"04/07/08","14:15:40",14322.000,"cc",28249.438,6.00,6,0.100,7186.000,0.200,2240.000,0.300,1860.000,0.500,2166.000,1.000,870.000,5.000,0
"04/07/08","14:15:46",15027.000,"cc",28190.986,6.00,6,0.100,7398.000,0.200,2406.000,0.300,2007.000,0.500,2283.000,1.000,933.000,5.000,0
"04/07/08","14:15:52",14876.000,"cc",28355.440,6.00,6,0.100,7361.000,0.200,2427.000,0.300,1971.000,0.500,2247.000,1.000,870.000,5.000,0
"04/07/08","14:15:58",15326.000,"cc",28354.707,6.00,6,0.100,7544.000,0.200,2466.000,0.300,2010.000,0.500,2373.000,1.000,932.000,5.000,1.000
"04/07/08","14:16:04",14932.000,"cc",28247.016,6.00,6,0.100,7387.000,0.200,2382.000,0.300,2000.000,0.500,2294.000,1.000,869.000,5.000,0
"04/07/08","14:16:10",15444.000,"cc",28354.213,6.00,6,0.100,7470.000,0.200,2424.000,0.300,2113.000,0.500,2431.000,1.000,1006.000,5.000,0
"04/07/08","14:16:16",15529.000,"cc",28348.945,6.00,6,0.100,7734.000,0.200,2591.000,0.300,1961.000,0.500,2301.000,1.000,942.000,5.000,0
"04/07/08","14:16:22",15804.000,"cc",28300.928,6.00,6,0.100,7729.000,0.200,2505.000,0.300,2108.000,0.500,2472.000,1.000,990.000,5.000,0
"04/07/08","14:16:28",16125.000,"cc",28300.602,6.00,6,0.100,7778.000,0.200,2606.000,0.300,2227.000,0.500,2541.000,1.000,973.000,5.000,0